Location: Unspecified
(0.0000°N, 0.0000°E)
Time: 07:52:07
(UTC+00:00)

Explorer 11/Cluster Stage 4 - All Passes

Search period start: 21 June 2025 00:00
Search period end: 01 July 2025 00:00
Orbit: 463 x 1189 km, 28.8° (Epoch: 20 June)

Date Brightness Start Highest point End Pass type
(mag) Time Alt. Az. Time Alt. Az. Time Alt. Az.
21 Jun - 06:47:51 10° N 06:52:07 17° NNE 06:56:41 10° ENE daylight
21 Jun - 08:33:32 10° NW 08:40:47 53° NNE 08:48:26 10° ESE daylight
21 Jun - 10:21:49 10° WNW 10:29:22 51° SSW 10:36:46 10° SE daylight
21 Jun - 12:13:34 10° WSW 12:18:11 17° SSW 12:22:34 10° S daylight
21 Jun - 19:34:35 10° S 19:36:42 14° SSE 19:38:41 10° ESE visible
21 Jun - 21:20:32 10° WSW 21:24:16 82° NNW 21:27:50 10° ENE night (unlit)
21 Jun - 23:11:05 10° NW 23:11:44 10° NNW 23:12:24 10° NNW night (unlit)
22 Jun - 06:25:28 10° N 06:29:35 17° NNE 06:34:02 10° ENE daylight
22 Jun - 08:11:02 10° NW 08:18:07 55° NNE 08:25:49 10° ESE daylight
22 Jun - 09:59:16 10° WNW 10:06:41 49° SSW 10:14:10 10° SE daylight
22 Jun - 11:51:00 10° WSW 11:55:37 17° SSW 12:00:04 10° S daylight
22 Jun - 19:11:50 10° SSW 19:14:27 16° SSE 19:16:52 10° ESE visible
22 Jun - 20:58:12 10° WSW 21:02:04 75° NNW 21:05:38 10° NE night (unlit)
23 Jun - 06:03:07 10° N 06:07:04 16° NNE 06:11:22 10° ENE daylight
23 Jun - 07:48:35 10° NW 07:55:28 57° NNE 08:03:08 10° ESE daylight
23 Jun - 09:36:46 10° WNW 09:44:01 47° SSW 09:51:32 10° SE daylight
23 Jun - 11:28:29 10° WSW 11:33:02 16° SSW 11:37:30 10° SSE daylight
23 Jun - 18:49:04 10° SSW 18:52:12 18° SSE 18:55:01 10° ESE visible
23 Jun - 20:35:50 10° WSW 20:39:51 69° NNW 20:43:27 10° NE visible
24 Jun - 05:40:50 10° N 05:44:34 16° NNE 05:48:40 10° ENE daylight
24 Jun - 07:26:11 10° NW 07:32:49 59° NNE 07:40:26 10° ESE daylight
24 Jun - 09:14:18 10° W 09:21:21 45° SSW 09:28:50 10° SE daylight
24 Jun - 11:06:01 10° WSW 11:10:28 16° SSW 11:14:52 10° S daylight
24 Jun - 18:26:18 10° SSW 18:29:56 20° SSE 18:33:07 10° ESE visible
24 Jun - 20:13:25 10° WSW 20:17:37 64° NNW 20:21:18 10° NE visible
25 Jun - 05:18:34 10° N 05:22:05 16° NNE 05:25:58 10° ENE visible
25 Jun - 07:03:48 10° NW 07:10:13 60° NNE 07:17:42 10° ESE daylight
25 Jun - 08:51:54 10° W 08:58:42 43° SSW 09:06:06 10° SE daylight
25 Jun - 10:43:37 10° SW 10:47:53 15° SSW 10:52:10 10° S daylight
25 Jun - 18:03:31 10° SSW 18:07:39 23° SSE 18:11:11 10° ESE daylight
25 Jun - 19:50:56 10° WSW 19:55:23 59° NNW 19:59:09 10° NE visible
26 Jun - 04:56:21 10° N 04:59:38 15° NNE 05:03:15 10° ENE visible
26 Jun - 06:41:28 10° NW 06:47:37 62° NNE 06:54:57 10° ESE daylight
26 Jun - 08:29:33 10° W 08:36:04 41° SSW 08:43:19 10° SE daylight
26 Jun - 10:21:17 10° SW 10:25:18 15° SSW 10:29:23 10° S daylight
26 Jun - 17:40:42 10° SSW 17:45:19 26° SSE 17:49:13 10° E daylight
26 Jun - 19:28:25 10° WSW 19:33:06 56° NNW 19:37:00 10° NE visible
27 Jun - 04:34:10 10° N 04:37:12 15° NNE 04:40:33 10° ENE visible
27 Jun - 06:19:12 10° NW 06:25:04 64° NNE 06:32:11 10° ESE daylight
27 Jun - 08:07:15 10° W 08:13:28 38° SSW 08:20:31 10° SE daylight
27 Jun - 09:59:02 10° SW 10:02:45 14° SSW 10:06:32 10° S daylight
27 Jun - 17:17:52 10° SSW 17:22:58 29° SSE 17:27:13 10° E daylight
27 Jun - 19:05:50 10° WSW 19:10:47 54° NNW 19:14:51 10° NE visible
28 Jun - 04:12:01 10° N 04:14:48 14° NNE 04:17:51 10° ENE visible
28 Jun - 05:56:56 10° NW 06:02:32 66° NNE 06:09:25 10° ESE daylight
28 Jun - 07:44:58 10° W 07:50:52 36° SSW 07:57:40 10° SE daylight
28 Jun - 09:36:54 10° SW 09:40:11 13° SSW 09:43:34 10° S daylight
28 Jun - 15:09:45 10° S 15:11:35 11° SSE 15:13:21 10° SSE daylight
28 Jun - 16:55:02 10° SW 17:00:35 33° SSE 17:05:11 10° E daylight
28 Jun - 18:43:13 10° WSW 18:48:27 52° NNW 18:52:43 10° NE visible
29 Jun - 03:49:52 10° N 03:52:24 14° NNE 03:55:11 10° ENE visible
29 Jun - 05:34:43 10° NW 05:40:02 69° NNE 05:46:39 10° ESE visible
29 Jun - 07:22:47 10° W 07:28:20 33° SSW 07:34:48 10° SE daylight
29 Jun - 09:14:53 10° SW 09:17:38 12° SSW 09:20:30 10° S daylight
29 Jun - 14:46:19 10° S 14:49:08 12° SSE 14:51:47 10° SE daylight
29 Jun - 16:32:11 10° SW 16:38:10 36° SSE 16:43:06 10° E daylight
29 Jun - 18:20:33 10° WSW 18:26:05 50° NNW 18:30:34 10° NE visible
30 Jun - 03:27:44 10° N 03:30:02 13° NNE 03:32:32 10° ENE visible
30 Jun - 05:12:31 10° NW 05:17:34 71° NNE 05:23:53 10° ESE visible
30 Jun - 07:00:37 10° W 07:05:48 31° SSW 07:11:55 10° SE daylight
30 Jun - 08:53:06 10° SW 08:55:07 11° SSW 08:57:12 10° S daylight
30 Jun - 14:23:07 10° S 14:26:38 14° SSE 14:29:57 10° SE daylight
30 Jun - 16:09:19 10° SW 16:15:42 39° SSE 16:20:58 10° E daylight
30 Jun - 17:57:52 10° WSW 18:03:41 49° NNW 18:08:23 10° NE daylight
